User: anonymous   Login
Location: Arrodets-la-Barthe
(43.0306°N, 0.2829°E)
Time: 16:07:17
(UTC+00:00)
Language:

CZ-4 R/B - Orbit

View from above orbital plane
View from above orbital plane
View from above satellite
View from above satellite

Ground track
Ground track

The orbit data is extracted from the following two-line orbital elements,

1 29507U 06046C   22021.79380343  .00000452  00000-0  39302-4 0  9995
2 29507  97.7503  52.4299 0046003   1.4776 358.6575 15.01296816832860
Epoch (UTC): 21 January 2022 19:03:04
Eccentricity: 0.0046003
inclination: 97.7503°
perigee height: 531 km
apogee height: 595 km
right ascension of ascending node: 52.4299°
argument of perigee: 1.4776°
revolutions per day: 15.01296816
mean anomaly at epoch: 358.6575°
orbit number at epoch: 83286

The dashed part of the orbit path shows where the satellite is in the earth's shadow,  

DLR